"2010-01-24 00:00:00",1618839,12.94,334,4.844,0.558,7.536,100.964,1.759,3.107,19.07,0,109.7,13.51,2.52,296.0
"2010-01-24 00:00:30",1618840,14.02,341.4,7.074,0.926,7.745,100.9524,1.729,3.092,18.88,0,109.7,13.51,2.49,303.4
"2010-01-24 00:01:00",1618841,13.53,342.1,4.869,0.817,7.648,100.9504,1.724,3.084,18.55,0,109.7,13.51,2.48,304.1
"2010-01-24 00:01:30",1618842,14.49,335.7,4.572,1.088,7.517,100.9504,1.724,3.089,18.88,0,109.7,13.51,2.48,297.7
"2010-01-24 00:02:00",1618843,15.52,333.6,4.422,0.808,7.626,100.9504,1.724,3.07,19.53,0,109.7,13.51,2.48,295.6
"2010-01-24 00:02:30",1618844,15.69,334.5,4.924,0.582,7.902,100.9499,1.723,3.059,19.36,0,109.7,13.51,2.48,296.5
"2010-01-24 00:03:00",1618845,15.9,337.8,4.008,0.843,7.965,100.9419,1.703,3.034,18.9,0,109.7,13.51,2.46,299.8
"2010-01-24 00:03:30",1618846,14.79,337.1,2.817,0.816,8.12,100.9255,1.661,3.03,18.84,0,109.7,13.52,2.42,299.1
"2010-01-24 00:04:00",1618847,16.13,337.7,4.005,1.231,8,100.9236,1.656,3.027,18.88,0,109.8,13.52,2.41,299.7
"2010-01-24 00:04:30",1618848,17.5,336.2,4.18,0.719,8.07,100.9171,1.639,3.014,18.91,0,109.7,13.52,2.40,298.2
"2010-01-24 00:05:00",1618849,17.76,338.3,3.87,0.679,8.3,100.9165,1.638,3.005,18.68,0,109.7,13.52,2.40,300.3
"2010-01-24 00:05:30",1618850,17.99,338.5,3.444,0.718,8.51,100.9165,1.638,2.97,18.15,0,109.7,13.52,2.40,300.5
"2010-01-24 00:06:00",1618851,17.2,338.2,3.849,0.649,8.58,100.9165,1.638,2.986,17.61,0,109.8,13.52,2.40,300.2
"2010-01-24 00:06:30",1618852,16.22,338.3,4.001,0.789,8.63,100.9165,1.638,2.975,17.21,0,109.7,13.52,2.40,300.3
"2010-01-24 00:07:00",1618853,16.28,336,3.894,0.899,8.55,100.9159,1.636,2.964,16.53,0,109.7,13.52,2.39,298.0
"2010-01-24 00:07:30",1618854,16.08,336.2,3.377,0.836,8.76,100.9131,1.629,2.963,16.41,0,109.7,13.52,2.39,298.2
"2010-01-24 00:08:00",1618855,15.15,337.1,3.56,0.791,8.51,100.9114,1.625,2.937,16.28,0,109.7,13.52,2.38,299.1
"2010-01-24 00:08:30",1618856,14.46,339.6,3.917,0.892,8.25,100.9094,1.62,2.949,16.15,0,109.7,13.52,2.38,301.6
"2010-01-24 00:09:00",1618857,14.69,338.6,4.408,0.537,7.978,100.9072,1.614,2.944,16.68,0,109.7,13.52,2.37,300.6
"2010-01-24 00:09:30",1618858,14.24,339.8,3.679,0.84,8.18,100.9029,1.603,2.96,17.32,0,109.7,13.52,2.36,301.8
"2010-01-24 00:10:00",1618859,14.72,336,4.125,1.028,7.932,100.8924,1.576,2.942,18,0,109.7,13.52,2.33,298.0
"2010-01-24 00:10:30",1618860,15.83,336.4,3.814,0.816,7.944,100.8874,1.563,2.938,17.78,0,109.7,13.52,2.32,298.4
"2010-01-24 00:11:00",1618861,16.07,335,4.168,0.657,8.01,100.8842,1.555,2.949,17.6,0,109.7,13.52,2.31,297.0
"2010-01-24 00:11:30",1618862,17.16,332.4,4.658,0.75,8.42,100.8828,1.552,2.931,17.8,0,109.7,13.52,2.31,294.4
"2010-01-24 00:12:00",1618863,16.57,329.2,4.005,0.79,8.53,100.8834,1.553,2.931,16.85,0,109.7,13.52,2.31,291.2
"2010-01-24 00:12:30",1618864,16.59,326.8,4.278,0.694,8.56,100.884,1.555,2.932,16.42,0,109.7,13.52,2.31,288.8
"2010-01-24 00:13:00",1618865,16.97,325.7,4.246,0.666,8.46,100.8843,1.556,2.939,16.79,0,109.7,13.52,2.31,287.7
"2010-01-24 00:13:30",1618866,15.64,331.8,4.463,0.826,8.61,100.8868,1.562,2.914,17.17,0,109.7,13.52,2.32,293.8
"2010-01-24 00:14:00",1618867,15.26,330.2,4.615,0.588,8.39,100.8851,1.558,2.929,17.46,0,109.7,13.52,2.32,292.2
"2010-01-24 00:14:30",1618868,14.44,331.6,4.688,0.676,8.21,100.8885,1.566,2.926,17.99,0,109.7,13.52,2.32,293.6
"2010-01-24 00:15:00",1618869,14.23,329.8,3.994,0.76,8.2,100.89,1.57,2.92,18.28,0,109.7,13.52,2.33,291.8
"2010-01-24 00:15:30",1618870,14.66,331.8,3.997,0.617,8.28,100.8914,1.574,2.908,18.34,0,109.7,13.52,2.33,293.8
"2010-01-24 00:16:00",1618871,14.57,329.5,4.568,0.487,8.13,100.8923,1.576,2.917,18.63,0,109.7,13.53,2.33,291.5
"2010-01-24 00:16:30",1618872,14.74,327.9,4.996,0.447,8.25,100.8925,1.577,2.91,18.45,0,109.7,13.53,2.33,289.9
"2010-01-24 00:17:00",1618873,14.68,326.8,3.817,0.7,8.13,100.894,1.58,2.924,18.43,0,109.7,13.53,2.34,288.8
"2010-01-24 00:17:30",1618874,14.37,329.5,4.417,0.765,8.34,100.8948,1.582,2.916,18.3,0,109.7,13.53,2.34,291.5
"2010-01-24 00:18:00",1618875,13.84,330,4.121,0.656,8.12,100.892,1.575,2.901,18.46,0,109.7,13.53,2.33,292.0
"2010-01-24 00:18:30",1618876,14.45,333.3,3.972,0.686,8.17,100.8833,1.553,2.905,18.77,0,109.7,13.53,2.31,295.3
"2010-01-24 00:19:00",1618877,14.56,334.6,3.477,0.772,7.944,100.8776,1.539,2.876,18.84,0,109.7,13.53,2.30,296.6
"2010-01-24 00:19:30",1618878,15.03,334.1,3.783,0.507,8.22,100.87,1.519,2.879,18.9,0,109.7,13.53,2.28,296.1
"2010-01-24 00:20:00",1618879,15.14,333.1,3.374,0.666,8.01,100.8711,1.522,2.863,19.02,0,109.7,13.52,2.28,295.1
"2010-01-24 00:20:30",1618880,14.91,334.9,4.311,0.551,8.02,100.8729,1.526,2.866,19.16,0,109.7,13.52,2.28,296.9
"2010-01-24 00:21:00",1618881,14.69,335.6,4.18,0.588,8.07,100.8731,1.527,2.857,19.14,0,109.7,13.52,2.28,297.6
"2010-01-24 00:21:30",1618882,14.64,336.7,3.843,0.609,8.16,100.8734,1.528,2.827,19.07,0,109.7,13.52,2.29,298.7
"2010-01-24 00:22:00",1618883,14.64,334.6,4.256,0.614,7.944,100.8763,1.535,2.834,19.14,0,109.7,13.52,2.29,296.6
"2010-01-24 00:22:30",1618884,14.47,332.9,4.013,0.522,7.932,100.8638,1.503,2.832,19.27,0,109.7,13.52,2.26,294.9
"2010-01-24 00:23:00",1618885,14.38,333.8,4.213,0.633,7.883,100.8454,1.456,2.806,19.33,0,109.6,13.52,2.21,295.8
"2010-01-24 00:23:30",1618886,14.1,335.2,3.852,0.708,8.14,100.842,1.448,2.803,19.27,0,109.6,13.53,2.20,297.2
"2010-01-24 00:24:00",1618887,13.87,332,4.28,0.559,7.895,100.8412,1.446,2.794,19.19,0,109.6,13.53,2.20,294.0
"2010-01-24 00:24:30",1618888,13.94,333.3,4.206,0.694,7.89,100.842,1.448,2.79,19.26,0,109.6,13.53,2.20,295.3
"2010-01-24 00:25:00",1618889,14.27,333.4,3.938,0.714,7.857,100.842,1.448,2.788,19.39,0,109.6,13.53,2.20,295.4
"2010-01-24 00:25:30",1618890,14.14,335.3,3.073,0.763,7.772,100.8443,1.454,2.777,19.75,0,109.6,13.53,2.21,297.3
"2010-01-24 00:26:00",1618891,14.84,334,3.854,0.641,7.89,100.8424,1.449,2.752,19.53,0,109.6,13.53,2.21,296.0
"2010-01-24 00:26:30",1618892,15.43,335.5,4.174,0.634,7.904,100.8325,1.423,2.772,19.42,0,109.6,13.53,2.18,297.5
"2010-01-24 00:27:00",1618893,15.27,337.4,4.134,0.791,8.02,100.8178,1.386,2.74,19.44,0,109.6,13.53,2.14,299.4
"2010-01-24 00:27:30",1618894,15.11,336.9,3.816,0.485,7.933,100.8132,1.374,2.733,19.72,0,109.6,13.53,2.13,298.9
"2010-01-24 00:28:00",1618895,15.36,337.4,4.386,0.695,7.934,100.8147,1.378,2.714,19.99,0,109.7,13.54,2.13,299.4
"2010-01-24 00:28:30",1618896,15.35,337.9,4.501,0.891,8.05,100.8149,1.379,2.721,19.78,0,109.6,13.54,2.14,299.9
"2010-01-24 00:29:00",1618897,15.56,335.9,4.11,0.674,7.884,100.8149,1.379,2.696,19.51,0,109.6,13.54,2.14,297.9
"2010-01-24 00:29:30",1618898,16.16,337.7,2.929,0.767,8.4,100.8149,1.379,2.69,19.35,0,109.6,13.54,2.14,299.7
"2010-01-24 00:30:00",1618899,15.15,335.8,3.685,0.76,8.2,100.8147,1.378,2.682,18.86,0,109.6,13.54,2.13,297.8
"2010-01-24 00:30:30",1618900,15.78,334,4.105,0.601,8.14,100.8124,1.372,2.702,18.9,0,109.6,13.54,2.13,296.0
"2010-01-24 00:31:00",1618901,15.37,335.2,3.893,0.785,7.942,100.8025,1.347,2.673,19.44,0,109.6,13.54,2.10,297.2
"2010-01-24 00:31:30",1618902,15.57,334.6,3.999,0.707,8.14,100.7912,1.318,2.652,19.81,0,109.6,13.54,2.07,296.6
"2010-01-24 00:32:00",1618903,14.84,336.5,4.088,0.55,8.16,100.7832,1.298,2.661,19.95,0,109.6,13.54,2.05,298.5
"2010-01-24 00:32:30",1618904,14.37,337.5,3.948,0.721,8.31,100.781,1.292,2.663,19.59,0,109.6,13.54,2.05,299.5
"2010-01-24 00:33:00",1618905,14.31,340.7,4.016,0.647,8.01,100.781,1.292,2.645,19.3,0,109.6,13.54,2.05,302.7
"2010-01-24 00:33:30",1618906,14.18,341.3,3.403,0.694,7.994,100.781,1.292,2.644,19.23,0,109.6,13.54,2.05,303.3
"2010-01-24 00:34:00",1618907,13.97,340.4,3.591,0.658,7.693,100.781,1.292,2.627,19.23,0,109.6,13.54,2.05,302.4
"2010-01-24 00:34:30",1618908,13.85,339.5,3.745,0.687,7.667,100.781,1.292,2.662,19.5,0,109.6,13.54,2.05,301.5
"2010-01-24 00:35:00",1618909,14.03,341,4.03,0.818,7.62,100.781,1.292,2.639,19.76,0,109.6,13.54,2.05,303.0
"2010-01-24 00:35:30",1618910,14.49,338.9,4.029,0.809,7.615,100.781,1.292,2.625,19.99,0,109.6,13.54,2.05,300.9
"2010-01-24 00:36:00",1618911,14.21,339.9,4.411,0.647,7.529,100.781,1.292,2.624,20.3,0,109.7,13.54,2.05,301.9
"2010-01-24 00:36:30",1618912,13.08,338.3,4.861,0.886,7.448,100.781,1.292,2.632,20.57,0,109.6,13.54,2.05,300.3
"2010-01-24 00:37:00",1618913,13.33,340.9,4.862,0.884,7.398,100.7801,1.29,2.595,20.29,0,109.6,13.54,2.05,302.9
"2010-01-24 00:37:30",1618914,16.36,337.7,3.779,0.554,7.83,100.7773,1.283,2.595,20.3,0,109.6,13.53,2.04,299.7
"2010-01-24 00:38:00",1618915,16.14,335.9,4.098,0.866,7.874,100.7708,1.266,2.597,19.84,0,109.7,13.53,2.02,297.9
"2010-01-24 00:38:30",1618916,17.59,335.4,3.705,1.063,7.747,100.7702,1.265,2.594,19.94,0,109.6,13.54,2.02,297.4
"2010-01-24 00:39:00",1618917,18.04,334.7,4.545,0.781,8.04,100.7612,1.242,2.58,20.02,0,109.6,13.53,2.00,296.7
"2010-01-24 00:39:30",1618918,17.98,333.8,3.954,0.973,8.37,100.7598,1.238,2.589,19.85,0,109.6,13.54,1.99,295.8
"2010-01-24 00:40:00",1618919,16.89,333.5,4.691,1.584,8.64,100.7592,1.236,2.582,19.52,0,109.6,13.53,1.99,295.5
"2010-01-24 00:40:30",1618920,18.47,331.1,4.104,0.974,8.37,100.76,1.239,2.579,19.64,0,109.6,13.54,1.99,293.1
"2010-01-24 00:41:00",1618921,16.14,338.1,4.106,0.952,8.28,100.7629,1.246,2.589,20.3,0,109.6,13.54,2.00,300.1
"2010-01-24 00:41:30",1618922,15.99,336.9,3.426,1.031,8.5,100.766,1.254,2.591,19.84,0,109.6,13.55,2.01,298.9
"2010-01-24 00:42:00",1618923,16.39,332.6,5.087,0.611,8.26,100.7697,1.263,2.579,19.78,0,109.6,13.55,2.02,294.6
"2010-01-24 00:42:30",1618924,16.2,334,4.3,0.734,8.12,100.7725,1.27,2.593,20.17,0,109.6,13.55,2.03,296.0
"2010-01-24 00:43:00",1618925,16.26,334.3,4.165,0.834,8.07,100.7708,1.266,2.594,20.82,0,109.6,13.54,2.02,296.3
"2010-01-24 00:43:30",1618926,14.76,339.4,4.363,0.874,8.07,100.7649,1.251,2.581,21.31,0,109.6,13.54,2.01,301.4
"2010-01-24 00:44:00",1618927,14.81,336.2,4.203,0.984,7.943,100.7572,1.231,2.575,21.61,0,109.6,13.54,1.99,298.2
"2010-01-24 00:44:30",1618928,15.7,334.6,4.55,0.551,8.01,100.7518,1.218,2.583,21.55,0,109.6,13.54,1.97,296.6
"2010-01-24 00:45:00",1618929,16.05,333.8,4.097,0.668,8.03,100.7479,1.208,2.586,21.07,0,109.6,13.54,1.96,295.8
"2010-01-24 00:45:30",1618930,15.73,332.2,3.106,0.813,8.09,100.7476,1.207,2.573,20.77,0,109.6,13.54,1.96,294.2
"2010-01-24 00:46:00",1618931,15.95,332.4,4.949,0.77,8.13,100.7485,1.209,2.545,20.59,0,109.6,13.54,1.97,294.4
"2010-01-24 00:46:30",1618932,16.49,335.9,4.405,0.591,7.997,100.7485,1.209,2.554,20.85,0,109.6,13.54,1.97,297.9
"2010-01-24 00:47:00",1618933,17.21,335.1,4.881,0.783,8.11,100.747,1.205,2.557,21.02,0,109.6,13.54,1.96,297.1
"2010-01-24 00:47:30",1618934,16.73,334.5,3.822,0.639,8.21,100.7496,1.212,2.54,20.99,0,109.6,13.55,1.97,296.5
"2010-01-24 00:48:00",1618935,16.75,333.2,5.237,0.58,8.38,100.7485,1.209,2.55,20.77,0,109.6,13.55,1.97,295.2
"2010-01-24 00:48:30",1618936,15.18,333.6,4.117,0.854,8.35,100.7465,1.204,2.541,20.56,0,109.6,13.55,1.96,295.6
"2010-01-24 00:49:00",1618937,15.32,336,3.903,0.739,8.48,100.7386,1.184,2.52,20.23,0,109.6,13.55,1.94,298.0
"2010-01-24 00:49:30",1618938,14.5,339.3,2.865,0.81,8.49,100.7375,1.181,2.516,19.57,0,109.6,13.55,1.94,301.3
"2010-01-24 00:50:00",1618939,13.6,341.1,3.948,0.963,8.47,100.7392,1.185,2.51,19.24,0,109.7,13.55,1.94,303.1
"2010-01-24 00:50:30",1618940,12.46,340.5,4.825,0.692,8.14,100.7454,1.201,2.55,19.18,0,109.6,13.55,1.96,302.5
"2010-01-24 00:51:00",1618941,13.03,333.5,4.648,0.936,7.71,100.757,1.231,2.507,19.22,0,109.6,13.55,1.99,295.5
"2010-01-24 00:51:30",1618942,11.79,338.6,3.789,0.615,7.585,100.7596,1.237,2.513,19.5,0,109.6,13.55,1.99,300.6
"2010-01-24 00:52:00",1618943,11.68,339,4.452,0.731,7.276,100.7601,1.239,2.537,20.09,0,109.6,13.55,2.00,301.0
"2010-01-24 00:52:30",1618944,12.5,339,4.702,0.581,7.057,100.759,1.236,2.532,20.47,0,109.6,13.55,1.99,301.0
"2010-01-24 00:53:00",1618945,12.69,338.6,4.397,0.539,7.095,100.7604,1.24,2.552,20.83,0,109.6,13.55,2.00,300.6
"2010-01-24 00:53:30",1618946,12.88,339.2,3.228,0.67,7.191,100.7621,1.244,2.553,20.68,0,109.6,13.55,2.00,301.2
"2010-01-24 00:54:00",1618947,12.95,338.1,3.875,0.621,6.992,100.765,1.251,2.537,20.78,0,109.6,13.55,2.01,300.1
"2010-01-24 00:54:30",1618948,14.41,338,5.473,0.881,7.349,100.7664,1.255,2.555,20.68,0,109.6,13.55,2.01,300.0
"2010-01-24 00:55:00",1618949,13.84,336.7,4.551,0.783,7.352,100.7653,1.252,2.547,20.4,0,109.6,13.54,2.01,298.7
"2010-01-24 00:55:30",1618950,13.23,337.1,4.426,0.804,7.669,100.7695,1.263,2.557,20.4,0,109.6,13.54,2.02,299.1
"2010-01-24 00:56:00",1618951,14.68,336.5,3.047,1.262,7.282,100.7701,1.264,2.534,20.66,0,109.6,13.54,2.02,298.5
"2010-01-24 00:56:30",1618952,14.75,337.4,3.757,0.924,7.469,100.7693,1.262,2.554,20.68,0,109.6,13.54,2.02,299.4
"2010-01-24 00:57:00",1618953,13.91,338,5.186,0.76,7.522,100.7713,1.267,2.537,20.77,0,109.6,13.55,2.02,300.0
"2010-01-24 00:57:30",1618954,13.68,338.1,6.002,0.926,7.563,100.7682,1.259,2.54,20.99,0,109.6,13.55,2.02,300.1
"2010-01-24 00:58:00",1618955,15.5,337.3,4.818,1.346,7.432,100.7605,1.24,2.546,21.24,0,109.6,13.55,2.00,299.3
"2010-01-24 00:58:30",1618956,15.83,337.1,4.195,0.76,7.652,100.7523,1.219,2.529,20.99,0,109.6,13.55,1.98,299.1
"2010-01-24 00:59:00",1618957,16.28,333.6,4.736,0.752,7.809,100.7472,1.206,2.533,20.88,0,109.6,13.55,1.96,295.6
"2010-01-24 00:59:30",1618958,16.91,331,3.391,0.799,8.11,100.7413,1.191,2.534,20.57,0,109.6,13.55,1.95,293.0
"2010-01-24 01:00:00",1618959,16.12,333,4.404,1.251,8.15,100.7393,1.186,2.516,20.34,0,109.6,13.56,1.94,295.0
"2010-01-24 01:00:30",1618960,15.65,332.2,3.921,0.707,8.27,100.7402,1.188,2.526,20.38,0,109.6,13.56,1.94,294.2
"2010-01-24 01:01:00",1618961,15.85,331.9,4.069,0.71,8.22,100.7402,1.188,2.518,20.54,0,109.6,13.56,1.94,293.9
"2010-01-24 01:01:30",1618962,15.49,332.6,3.291,0.661,8.18,100.7413,1.191,2.493,20.8,0,109.6,13.56,1.95,294.6
"2010-01-24 01:02:00",1618963,15.96,333.3,4.676,0.546,8.09,100.7413,1.191,2.513,21.31,0,109.6,13.56,1.95,295.3
"2010-01-24 01:02:30",1618964,15.02,334.2,3.919,0.718,8.02,100.7407,1.189,2.493,21.53,0,109.6,13.56,1.95,296.2
"2010-01-24 01:03:00",1618965,15.21,333.8,4.159,0.769,7.897,100.7419,1.192,2.484,21.68,0,109.6,13.56,1.95,295.8
"2010-01-24 01:03:30",1618966,15.68,332.5,3.036,0.8,7.915,100.741,1.19,2.469,21.96,0,109.6,13.56,1.95,294.5
"2010-01-24 01:04:00",1618967,15.71,332.8,3.956,0.674,7.845,100.7388,1.184,2.473,22.14,0,109.6,13.56,1.94,294.8
"2010-01-24 01:04:30",1618968,15.84,332.3,3.887,0.661,7.931,100.728,1.157,2.488,22.15,0,109.6,13.56,1.91,294.3
"2010-01-24 01:05:00",1618969,14.8,332.1,3.917,0.661,7.953,100.7187,1.133,2.458,22.22,0,109.6,13.56,1.89,294.1
"2010-01-24 01:05:30",1618970,14.96,334,3.522,0.735,7.992,100.711,1.114,2.453,22.34,0,109.6,13.56,1.87,296.0
"2010-01-24 01:06:00",1618971,15.57,333.7,3.975,0.844,7.803,100.7093,1.109,2.435,22.63,0,109.6,13.56,1.87,295.7
"2010-01-24 01:06:30",1618972,15.84,333,4.213,0.565,7.808,100.7102,1.111,2.435,22.46,0,109.6,13.56,1.87,295.0
"2010-01-24 01:07:00",1618973,14.8,332.7,3.905,0.74,7.962,100.7119,1.116,2.415,22.33,0,109.6,13.56,1.87,294.7
"2010-01-24 01:07:30",1618974,15.92,334.8,3.375,0.98,7.967,100.7096,1.11,2.4,22.3,0,109.6,13.56,1.87,296.8
"2010-01-24 01:08:00",1618975,16.33,334,4.361,0.9,7.959,100.6966,1.077,2.393,22.37,0,109.6,13.56,1.83,296.0
"2010-01-24 01:08:30",1618976,15.78,332.5,4.303,0.899,7.901,100.683,1.042,2.406,22.34,0,109.6,13.56,1.80,294.5
"2010-01-24 01:09:00",1618977,15.18,332.5,4.042,0.738,8.05,100.6776,1.028,2.373,22.18,0,109.6,13.55,1.78,294.5
"2010-01-24 01:09:30",1618978,15.26,332.3,3.21,0.666,8.15,100.6785,1.031,2.366,22.07,0,109.6,13.55,1.79,294.3
"2010-01-24 01:10:00",1618979,15.44,331.7,3.879,0.528,7.975,100.6782,1.03,2.363,22.25,0,109.6,13.55,1.79,293.7
"2010-01-24 01:10:30",1618980,15.58,334.2,3.789,0.927,7.868,100.6791,1.032,2.365,22.48,0,109.6,13.55,1.79,296.2
"2010-01-24 01:11:00",1618981,16.19,333,3.855,0.938,7.765,100.6791,1.032,2.329,22.67,0,109.6,13.55,1.79,295.0
"2010-01-24 01:11:30",1618982,16.19,331.3,2.992,0.841,7.873,100.6793,1.033,2.33,22.92,0,109.6,13.55,1.79,293.3
"2010-01-24 01:12:00",1618983,16.11,334.3,4.322,0.659,7.952,100.6714,1.013,2.329,23.07,0,109.6,13.55,1.77,296.3
"2010-01-24 01:12:30",1618984,15.59,335.4,4.198,0.669,7.959,100.6618,0.988,2.314,23.26,0,109.6,13.55,1.74,297.4
"2010-01-24 01:13:00",1618985,16.11,334.6,3.872,0.804,7.854,100.6519,0.963,2.305,23.4,0,109.6,13.55,1.72,296.6
"2010-01-24 01:13:30",1618986,15.98,334.8,2.98,0.791,8.1,100.6465,0.949,2.292,22.96,0,109.6,13.56,1.70,296.8
"2010-01-24 01:14:00",1618987,14.89,335.7,3.8,0.979,8.02,100.6454,0.946,2.277,22.54,0,109.6,13.56,1.70,297.7
"2010-01-24 01:14:30",1618988,13.4,335,3.831,0.834,8.06,100.6454,0.946,2.283,22.36,0,109.6,13.56,1.70,297.0
"2010-01-24 01:15:00",1618989,14.33,337.1,3.95,1.021,7.837,100.6454,0.946,2.257,22.14,0,109.6,13.56,1.70,299.1
"2010-01-24 01:15:30",1618990,15.29,337.7,3.771,0.739,7.938,100.6454,0.946,2.251,22.32,0,109.6,13.56,1.70,299.7
"2010-01-24 01:16:00",1618991,15,331.7,4.38,0.55,7.774,100.6454,0.946,2.239,22.25,0,109.6,13.56,1.70,293.7
"2010-01-24 01:16:30",1618992,14.94,334,3.79,0.813,7.764,100.6442,0.943,2.256,22.1,0,109.6,13.56,1.70,296.0
"2010-01-24 01:17:00",1618993,14.9,335.8,4.564,0.809,7.973,100.6423,0.938,2.232,21.96,0,109.6,13.56,1.69,297.8
"2010-01-24 01:17:30",1618994,14.83,335.4,3.407,0.74,7.909,100.6417,0.937,2.224,21.99,0,109.6,13.56,1.69,297.4
"2010-01-24 01:18:00",1618995,16.07,334.9,4.505,0.743,7.714,100.6391,0.93,2.224,22.13,0,109.6,13.56,1.69,296.9
"2010-01-24 01:18:30",1618996,15.63,337.9,3.669,0.883,7.849,100.6352,0.92,2.241,22.5,0,109.6,13.56,1.68,299.9
"2010-01-24 01:19:00",1618997,15.48,337.1,4.331,0.737,7.77,100.6307,0.909,2.229,22.8,0,109.6,13.56,1.66,299.1
"2010-01-24 01:19:30",1618998,16.35,333.8,3.359,0.9,7.698,100.6273,0.9,2.216,22.91,0,109.6,13.56,1.66,295.8
"2010-01-24 01:20:00",1618999,17.85,333.2,3.178,0.693,7.728,100.627,0.899,2.214,22.85,0,109.6,13.56,1.65,295.2
"2010-01-24 01:20:30",1619000,18.18,333.2,4.223,0.704,8.09,100.6258,0.896,2.219,22.79,0,109.6,13.56,1.65,295.2
"2010-01-24 01:21:00",1619001,17.44,332.8,3.927,0.96,8.25,100.6222,0.887,2.23,22.51,0,109.6,13.56,1.64,294.8
"2010-01-24 01:21:30",1619002,18.06,330,4.216,0.844,8.29,100.6199,0.881,2.203,22.46,0,109.6,13.56,1.64,292.0
"2010-01-24 01:22:00",1619003,17.62,331,4.423,0.834,8.52,100.6179,0.876,2.209,22.11,0,109.7,13.56,1.63,293.0
"2010-01-24 01:22:30",1619004,16.53,330.4,4.166,0.753,8.35,100.6154,0.87,2.21,21.9,0,109.6,13.57,1.62,292.4
"2010-01-24 01:23:00",1619005,18.27,329.5,4.114,0.813,8.2,100.6159,0.871,2.197,22.49,0,109.6,13.56,1.63,291.5
"2010-01-24 01:23:30",1619006,17.83,331.2,3.278,0.927,8.27,100.6142,0.867,2.205,22.74,0,109.6,13.56,1.62,293.2
"2010-01-24 01:24:00",1619007,16.92,331.8,3.531,0.752,7.97,100.6134,0.865,2.2,23.21,0,109.6,13.57,1.62,293.8
"2010-01-24 01:24:30",1619008,17.36,333.7,3.798,0.977,8.05,100.6134,0.865,2.213,23.59,0,109.6,13.56,1.62,295.7
"2010-01-24 01:25:00",1619009,18.17,331.9,3.678,1.097,8.26,100.6114,0.86,2.199,23.2,0,109.6,13.56,1.61,293.9
"2010-01-24 01:25:30",1619010,16.36,334.5,3.934,0.885,8.49,100.6114,0.86,2.195,22.47,0,109.6,13.56,1.61,296.5
"2010-01-24 01:26:00",1619011,18.21,330.1,4.405,0.59,8.3,100.6114,0.86,2.188,22.3,0,109.6,13.56,1.61,292.1
"2010-01-24 01:26:30",1619012,17.7,331.2,3.978,0.778,8.39,100.6114,0.86,2.196,22.13,0,109.6,13.56,1.61,293.2
"2010-01-24 01:27:00",1619013,16.48,334,2.601,0.815,8.43,100.6114,0.86,2.181,21.66,0,109.6,13.56,1.61,296.0
"2010-01-24 01:27:30",1619014,17.73,332,4.239,1.136,8.39,100.6114,0.86,2.191,21.8,0,109.6,13.56,1.61,294.0
"2010-01-24 01:28:00",1619015,18.62,329.7,3.978,0.772,8.13,100.6114,0.86,2.184,22.34,0,109.6,13.56,1.61,291.7
"2010-01-24 01:28:30",1619016,18.51,328.3,4.175,0.943,8.22,100.6114,0.86,2.192,22.67,0,109.6,13.56,1.61,290.3
"2010-01-24 01:29:00",1619017,18.33,324.5,3.851,0.764,8.3,100.6114,0.86,2.186,22.5,0,109.6,13.56,1.61,286.5
"2010-01-24 01:29:30",1619018,17.76,329.7,3.723,0.718,8.4,100.6114,0.86,2.187,22.52,0,109.6,13.56,1.61,291.7
"2010-01-24 01:30:00",1619019,16.98,334.1,5.392,1.197,8.46,100.6114,0.86,2.187,22.42,0,109.7,13.56,1.61,296.1
"2010-01-24 01:30:30",1619020,15.99,330.5,3.815,0.86,8.47,100.6123,0.862,2.21,21.98,0,109.6,13.56,1.62,292.5
"2010-01-24 01:31:00",1619021,16.47,332.2,3.7,0.869,8.42,100.6134,0.865,2.199,21.74,0,109.6,13.57,1.62,294.2
"2010-01-24 01:31:30",1619022,16.44,327.9,2.799,0.855,8.16,100.614,0.866,2.2,22.03,0,109.6,13.57,1.62,289.9
"2010-01-24 01:32:00",1619023,16.23,326.4,4.05,0.782,8.01,100.6162,0.872,2.204,22.56,0,109.6,13.57,1.63,288.4
"2010-01-24 01:32:30",1619024,16.81,330.7,4.477,0.848,8.19,100.6176,0.875,2.207,22.66,0,109.6,13.57,1.63,292.7
"2010-01-24 01:33:00",1619025,17.71,331.2,3.567,0.805,8.2,100.6188,0.878,2.207,22.39,0,109.6,13.57,1.63,293.2
"2010-01-24 01:33:30",1619026,16.74,328.9,4.254,1.022,8.17,100.6196,0.88,2.198,22.44,0,109.6,13.57,1.64,290.9
"2010-01-24 01:34:00",1619027,17.27,328.3,4.151,0.662,8.26,100.6205,0.883,2.2,22.39,0,109.6,13.57,1.64,290.3
"2010-01-24 01:34:30",1619028,15.63,327.2,4.967,0.876,8.39,100.6208,0.883,2.212,22,0,109.6,13.57,1.64,289.2
"2010-01-24 01:35:00",1619029,16.18,324.6,4.236,0.737,8.21,100.625,0.894,2.215,22.01,0,109.6,13.57,1.65,286.6
"2010-01-24 01:35:30",1619030,16.44,325.2,4.391,0.818,8.46,100.6258,0.896,2.195,22.21,0,109.6,13.57,1.65,287.2
"2010-01-24 01:36:00",1619031,16.44,326.2,3.761,0.842,8.09,100.6287,0.904,2.206,21.93,0,109.6,13.57,1.66,288.2
"2010-01-24 01:36:30",1619032,16.06,328.2,4.75,0.767,8.38,100.6292,0.905,2.229,21.62,0,109.6,13.57,1.66,290.2
"2010-01-24 01:37:00",1619033,15.64,328.6,3.812,0.815,8.27,100.6363,0.923,2.209,21.05,0,109.6,13.57,1.68,290.6
"2010-01-24 01:37:30",1619034,15.56,326.7,3.613,0.693,8.28,100.6408,0.935,2.184,21.34,0,109.6,13.57,1.69,288.7
"2010-01-24 01:38:00",1619035,16.03,326.6,3.842,0.991,8.14,100.6445,0.944,2.22,21.6,0,109.6,13.57,1.70,288.6
"2010-01-24 01:38:30",1619036,17.22,324.2,4.988,0.759,8.04,100.6448,0.945,2.23,21.68,0,109.6,13.57,1.70,286.2
"2010-01-24 01:39:00",1619037,17.19,320.1,4.201,0.872,8.22,100.6451,0.945,2.216,21.57,0,109.6,13.57,1.70,282.1
"2010-01-24 01:39:30",1619038,16.07,323.6,2.579,1.105,8.25,100.6454,0.946,2.234,21.32,0,109.6,13.57,1.70,285.6
"2010-01-24 01:40:00",1619039,15.29,325.7,3.51,0.875,8.23,100.6454,0.946,2.232,21.41,0,109.6,13.57,1.70,287.7
"2010-01-24 01:40:30",1619040,16.55,324.6,3.386,1.057,7.995,100.6454,0.946,2.254,21.76,0,109.6,13.57,1.70,286.6
"2010-01-24 01:41:00",1619041,16.59,324.9,3.73,0.999,7.827,100.6454,0.946,2.246,22.67,0,109.6,13.57,1.70,286.9
"2010-01-24 01:41:30",1619042,14.89,328.4,3.893,0.836,8.19,100.6454,0.946,2.255,22.73,0,109.6,13.57,1.70,290.4
"2010-01-24 01:42:00",1619043,14,330.1,2.768,0.71,8.07,100.6454,0.946,2.249,22.24,0,109.6,13.57,1.70,292.1
"2010-01-24 01:42:30",1619044,15.01,326.5,4.278,0.771,7.935,100.6454,0.946,2.263,22.24,0,109.6,13.56,1.70,288.5
"2010-01-24 01:43:00",1619045,14.59,324.8,3.816,0.689,7.972,100.6454,0.946,2.25,22.15,0,109.6,13.56,1.70,286.8
"2010-01-24 01:43:30",1619046,14.47,324.6,4.121,0.642,7.931,100.6454,0.946,2.242,22.32,0,109.6,13.56,1.70,286.6
"2010-01-24 01:44:00",1619047,14.64,326.7,4.207,0.697,7.784,100.6454,0.946,2.263,22.55,0,109.6,13.56,1.70,288.7
"2010-01-24 01:44:30",1619048,15.28,325.8,3.897,0.703,7.817,100.6454,0.946,2.257,22.61,0,109.6,13.56,1.70,287.8
"2010-01-24 01:45:00",1619049,14.67,327.6,3.863,0.736,7.982,100.6454,0.946,2.257,22.33,0,109.6,13.56,1.70,289.6
"2010-01-24 01:45:30",1619050,14.81,327.6,2.788,0.874,7.916,100.6454,0.946,2.248,22.17,0,109.6,13.56,1.70,289.6
"2010-01-24 01:46:00",1619051,14.74,324.5,3.598,0.724,7.822,100.6448,0.945,2.248,21.89,0,109.6,13.57,1.70,286.5
"2010-01-24 01:46:30",1619052,14.03,327.1,3.541,0.812,7.899,100.6454,0.946,2.252,21.71,0,109.6,13.57,1.70,289.1
"2010-01-24 01:47:00",1619053,13.43,327.7,4.278,0.668,8,100.6448,0.945,2.25,21.62,0,109.6,13.57,1.70,289.7
"2010-01-24 01:47:30",1619054,14.05,325.7,3.435,0.629,7.756,100.6408,0.935,2.254,21.72,0,109.6,13.57,1.69,287.7
"2010-01-24 01:48:00",1619055,15.17,325.2,3.96,0.639,7.519,100.6377,0.927,2.238,22.56,0,109.6,13.57,1.68,287.2